Find Starlink 31686

NORAD ID: 59579 Int'l Des: 2024-076 Owner: SPXS Country: US Constellation: starlink operational
LEOCIRCULAR

Current View

Loading 3D Globe...

About Starlink 31686

Starlink 31686 (NORAD 59579) is a starlink constellation satellite (v2 mini) launched Apr 23, 2024 by SPXS of US. It operates in LEO, CIRCULAR orbit with a mass of 730.00 kg.

Upcoming Passes

Passes for default location (London). Set your location on the main map for personalized predictions.

Altitude History

Loading altitude history...

Two-Line Element Set

1 59579U 24076R 26237.10802870 -.00000042 00000-0 79946-5 0 9997
2 59579 43.0014 137.5539 0000994 291.9586 68.1160 15.27574957132262
Epoch: Aug 25, 2026 • Age: 22 hours

Current Status

Altitude 483.8 km
Apogee / Perigee N/A
Velocity 7.62 km/s
Sub-Earth Point -8.29°S, 141.53°E
Launch Date Apr 23, 2024
Age 2.3 years
Type internet

Technical Details

Classification Payload
Mass 730.00 kg
Dry Mass 700.00 kg
Total Mass 730.00 kg
Length 0.30 m
Diameter 4.10 m
Span 29.00 m
Shape Box + pan
Manufacturer SPXS
Bus Type Starlink V2M
Phase Status In Orbit
Owner/State SPXS/US

Most Searched